Regional Weather Roundup
Issued by NWS

Home | Current Version | Previous Version | Text Only | Print | Product List | Glossary On
Versions: 1 2 3 4 5 6 7 8 9 10 11 12 13 14 15 16 17 18 19 20 21 22 23 24 25 26 27 28 29 30 31 32 33 34 35 36 37 38 39 40 41 42 43 44 45 46 47 48 49 50
000
ASUS44 KLUB 311110
RWRTX
WEST TEXAS WEATHER ROUNDUP
NATIONAL WEATHER SERVICE LUBBOCK TX
600 AM CDT MON AUG 31 2015

NOTE: "FAIR" INDICATES FEW OR NO CLOUDS BELOW 12,000 FEET WITH NO
SIGNIFICANT WEATHER AND/OR OBSTRUCTIONS TO VISIBILITY.

TXZ004-006>008-010-012-014-016-OKZ002-311200-
TEXAS PANHANDLE/OKLAHOMA PANHANDLE

CITY           SKY/WX    TMP DP  RH WIND       PRES   REMARKS
AMARILLO       CLEAR     61  53  75 S12       30.02S
BORGER         CLEAR     68  54  60 S5        29.99S
CANADIAN       CLEAR     59  55  87 CALM      29.97R
DALHART        CLEAR     57  50  77 S7        30.02S
DUMAS          CLEAR     61  51  70 S9        30.01S
GUYMON         CLEAR     61  53  75 S8        29.95F
HEREFORD       CLEAR     64  56  75 SW10G16   30.05R
PAMPA          CLEAR     60  55  82 SW6       30.01S
PERRYTON       CLEAR     63  54  73 S7        29.97S
$$

TXZ026-029-035-045-048-311200-
SOUTHERN PANHANDLE/SOUTH PLAINS/ROLLING PLAINS

CITY           SKY/WX    TMP DP  RH WIND       PRES   REMARKS
CHILDRESS      CLEAR     69  55  60 SW5       29.97R
SEMINOLE       CLEAR     62  55  78 SW3       30.07R
LUBBOCK        CLEAR     64  56  75 SW7       30.05R
PLAINVIEW      CLEAR     60  52  75 SW3       30.04R
SNYDER         CLEAR     64  57  79 S7        30.04S
$$

TXZ052-054-060>062-072-078-127-140-154-169-311200-
PERMIAN BASIN/CONCHO VALLEY/BIG COUNTRY/EDWARDS PLATEAU

CITY           SKY/WX    TMP DP  RH WIND       PRES   REMARKS
ABILENE        CLEAR     70  59  68 S7        30.01R
BIG SPRING     CLEAR     63  55  75 SE7       30.06S
BRADY          CLEAR     68  64  88 SE6       30.02S
BROWNWOOD      MOCLDY    64  63  94 CALM      30.02R
JUNCTION       CLEAR     64  63  96 NW6       30.02R
MIDLAND        CLEAR     68  57  68 S9        30.04R
ODESSA         CLEAR     66  56  70 SE5       30.05R
SAN ANGELO     CLEAR     64  60  87 SW6       30.02R
SONORA         CLEAR     66  63  88 CALM      30.08R
SWEETWATER     CLEAR     70  57  63 S10       30.05R
WINK           CLEAR     66  58  75 E3        30.02R
$$

TXZ055-058-074-075-080-082-311200-
FAR WEST/SOUTHWEST MOUNTAINS/TRANS PECOS

CITY           SKY/WX    TMP DP  RH WIND       PRES   REMARKS
ALPINE         CLEAR     59  50  71 SW7       30.17R
DRYDEN           N/A     70  59  68 NW8       30.00R
EL PASO        CLEAR     71  51  49 SE3       30.04R
FORT STOCKTON  CLEAR     68  56  65 S10       30.03R
GUADALUPE PASS CLEAR     70  46  42 NE5       30.17S
MARFA          CLEAR     52  46  82 N6        30.15R
PECOS          CLEAR     66  56  69 E7        30.00S
$$

TXZ014-016-019-021>030-083-311200
TEXAS TECH WEST TEXAS MESONET/TEXAS PANHANDLE/NORTHERN SOUTH PLAINS

CITY           SKY/WX    TMP DP  RH WIND       PRES   REMARKS
ABERNATHY 5ENE   N/A     57  53  85 SW5       30.06R
AMARILLO 9NNE    N/A     70  53  54 S16       30.00R
AMARILLO 7SSE    N/A     57  53  85 SW7       30.04S
AMHERST 1NE      N/A     65  56  74 SW10      30.06R
BOOTLEG 11WNW    N/A     58  50  74 SW12      30.08S
CANADIAN 6E      N/A     62  54  77 SE3       29.96R
CAPROCK CYN SP   N/A     71  57  60 SW16      30.00S
CHILDRESS 2NNE   N/A     69  55  61 SW5       29.97R
CLARENDON 2WSW   N/A     64  54  69 S9        30.01R
CLAUDE 12SW      N/A     70  54  57 S6        30.04R
DIMMITT 2NE      N/A     62  54  75 S14       30.06R
FLOYDADA 2NNE    N/A     60  55  82 S8        30.05R
FRIONA 2NE       N/A     61  53  74 SW10      30.07S
GOODLETT 3W      N/A     68  55  63 SE3       29.96R
HART 3N          N/A     58  55  88 SW5       30.06R
HEREFORD 2NW     N/A     61  52  71 SW9       30.05R
MCLEAN 1E        N/A     63  53  70 S7        29.99R
MEMPHIS 1NE      N/A     59  55  88 NW2       29.98R
MULESHOE 2SSW    N/A     63  55  76 S10       30.06R
OLTON 6S         N/A     61  55  82 S8        30.05S
PALO DURO SP     N/A     67  55  63 SW15      30.03S
PAMPA 2E         N/A     64  55  70 SW9       30.01R
PLAINVIEW 1S     N/A     60  57  88 SW3       30.04S
SILVERTON 7ESE   N/A     62  56  81 SW9       30.04R
TULIA 2ENE       N/A     63  57  81 SW9       30.04S
TURKEY 2WSW      N/A     65  58  79 SW7       29.99R
UMBARGER 3NNE    N/A     61  53  75 SW10      30.05R
$$

TXZ033>036-039>041-045>048-311200
TEXAS TECH WEST TEXAS MESONET/SOUTH PLAINS

CITY           SKY/WX    TMP DP  RH WIND       PRES   REMARKS
AIKEN 3WSW       N/A     56  54  92 SW6       30.06S
ANDREWS 2NE      N/A     64  56  74 S5        30.06R
ANTON 6SSW       N/A     57  54  87 S5        30.06R
BROWNFIELD 2S    N/A     59  54  82 SW5       30.06R
DENVR CTY 7WNW   N/A     60  54  82 SW8       30.07R
GAIL 2ESE        N/A     63  58  83 S5        30.03R
LAMESA 2SE       N/A     61  56  84 SW5       30.05R
LEVELLAND 4S     N/A     58  54  84 SW6       30.07R
LUBBOCK 3WNW     N/A     63  54  74 S6        30.06R
MORTON 1ENE      N/A     63  56  76 SW12      30.06S
ODONNELL 1N      N/A     62  55  78 S3        30.06R
PLAINS 3N        N/A     61  55  81 S7        30.06S
RALLS 1SE        N/A     62  55  80 SW3       30.06R
REESE CENTER     N/A     60  54  81 S7        30.06R
SEAGRAVES 1SW    N/A     59  55  88 S5        30.06R
SEMINOLE 2NNE    N/A     65  55  70 S8        30.06R
SLATON 2NE       N/A     61  55  82 SW9       30.05R
SNYDER 3E        N/A     64  57  79 S5        30.03S
SUNDOWN 8SW      N/A     56  53  89 SW8       30.07R
TAHOKA 3NNE      N/A     60  56  84 S7        30.06R
WOLFFORTH 6SSW   N/A     58  54  85 S6        30.06S
$$

TXZ031-032-036>038-042>044-311200-
TEXAS TECH WEST TEXAS MESONET/ROLLING PLAINS

CITY           SKY/WX    TMP DP  RH WIND       PRES   REMARKS
ASPERMONT 3NE    N/A     64  57  78 E2        30.00R
FLUVANNA 3WNW    N/A     61  56  83 S3        30.05R
GRAHAM 5SSW      N/A     65  55  69 SW5       30.05R
GUTHRIE 10WSW    N/A     69  56  64 S8        29.99R
HASKELL 1NW      N/A     68  56  65 S3        29.99R
JAYTON 1SSE      N/A     66  57  71 CALM      30.00R
KNOX CITY 3NW    N/A     67  57  68 S8        29.98S
LK A HENRY 1NW   N/A     67  57  72 W9        30.01S
NORTHFIELD 1S    N/A     71  58  65 SW6       29.98R
ODELL 4ENE       N/A     74  59  59 S8        29.97R
PADUCAH 10SW     N/A     69  57  65 S9        29.97R
POST 1NE         N/A     68  55  63 SW7       30.03R
RRING SPRGS 3N   N/A     66  58  75 W6        30.02R
SEYMOUR 3NW      N/A     70  58  65 S6        29.97S
SPUR 1W          N/A     66  55  68 W3        30.00R
WEINERT 2NNE     N/A     67  56  70 S5        29.99R
WHITE RVR 6NE    N/A     68  55  62 SW6       30.03R
$$

TXZ052-054-060>062-072-078-127-140-154-169-311200-
TEXAS TECH WEST TEXAS MESONET/PERMIAN BASIN/
CONCHO VALLEY/BIG COUNTRY/EDWARDS PLATEAU

CITY           SKY/WX    TMP DP  RH WIND       PRES   REMARKS
JUNCTION 1SSW    N/A     64  64 100 CALM      30.03S
MERTZON 3NNE     N/A     66  59  80 S5        30.04S
SAN ANGELO 7NW   N/A     62  54  75 NW1       30.03R
STRLNG CT 4WSW   N/A     59  54  83 SW1       30.05R
ST LAWRNCE 5SW   N/A     62  56  81 SE7       30.05R
SWEETWATR 11SW   N/A     68  58  70 S8        30.05R
WALL 1E          N/A     63  57  81 N2        30.03R
$$

TXZ055-058-074-075-080-082-311200-
TEXAS TECH WEST TEXAS MESONET/FAR WEST/SOUTHWEST MOUNTAINS/TRANS PECOS

CITY           SKY/WX    TMP DP  RH WIND       PRES   REMARKS
PRSMN GAP BBNP   N/A     72  56  57 NE7       30.03R
$$



USA.gov is the U.S. government's official web portal to all federal, state and local government web resources and services.